Meteo Giornale » Osservazioni meteo Canada » Sault Ste Marie Ont
ore: 17:00 - Osservazioni Meteo Sault Ste Marie Ont
Lat. 46° 29' N Lon. 84° 30' W Alt. 187 metri s.l.m.
20 °C
Foschia
Temp. 24 Ore
17 °C
20 °C
Est
16.7 Km/h
Dew point 19 °C
Umidità 93 %
Visibilità 5 Km
Il sole sorge alle ore 06:57
Il sole tramonta alle ore 20:19
| Data e Ora | Cielo e Fenomeni | T °C | DP °C | Um. % | Pres. hPa | Vis. km | Vento km/h | |
|---|---|---|---|---|---|---|---|---|
| Oggi h: 17:00 | Foschia | 20 | 19 | 93 | 1012 | 5 | E 16.7 | |
| Oggi h: 16:00 | Foschia | 20 | 19 | 93 | 1012 | 5 | E 14.8 | |
| Oggi h: 15:48 | Foschia | 20 | 19 | 93 | 1012 | 5 | E 14.8 | |
| Oggi h: 15:00 | Foschia | 20 | 19 | 93 | 1013 | 5 | E 14.8 | |
| Oggi h: 14:19 | Foschia | 19 | 19 | 100 | 1013 | 5 | E 14.8 | |
| Oggi h: 14:00 | Foschia | 19 | 19 | 100 | 1014 | 5 | E 14.8 | |
| Oggi h: 13:41 | Foschia | 19 | 19 | 100 | 1014 | 5 | E 13 | |
| Oggi h: 13:00 | Pioviggine Foschia | 19 | 19 | 100 | 1014 | 3 | E 13 | |
| Oggi h: 12:49 | Pioviggine Foschia | 19 | 19 | 100 | 1014 | 3 | E 13 | |
| Oggi h: 10:12 | Pioviggine Foschia | 19 | 18 | 93 | 1015 | 2 | E 14.8 | |
| Oggi h: 10:00 | Foschia | 19 | 18 | 93 | 1015 | 2 | N 3.7 | |
| Oggi h: 09:00 | Foschia | 19 | 18 | 93 | 1014 | 2 | E 16.7 | |
| Oggi h: 08:00 | Foschia | 19 | 18 | 93 | 1014 | 2 | E 14.8 | |
| Oggi h: 07:00 | Foschia | 18 | 18 | 100 | 1014 | 2 | E 16.7 | |
| Oggi h: 06:49 | Foschia | 18 | 18 | 100 | 1014 | 2 | E/SE 18.5 | |
| Oggi h: 06:39 | Foschia | 18 | 18 | 100 | 1014 | 2 | E 14.8 | |
| Oggi h: 06:21 | Pioggia Foschia | 18 | 18 | 100 | 1015 | 3 | E 14.8 | |
| Oggi h: 06:14 | Foschia | 18 | 18 | 100 | 1015 | 3 | E 13 | |
| Oggi h: 06:00 | Foschia | 18 | 18 | 100 | 1015 | 2 | E 11.1 | |
| Oggi h: 05:00 | Foschia | 18 | 18 | 100 | 1016 | 2 | E/SE 11.1 | |
| Oggi h: 04:00 | Foschia | 18 | 18 | 100 | 1015 | 6 | E 13 | |
| Oggi h: 03:00 | Foschia | 18 | 18 | 100 | 1015 | 8 | E 9.3 | |
| Oggi h: 02:00 | Coperto | 18 | 18 | 100 | 1016 | 11 | E 11.1 | |
| Oggi h: 01:40 | Coperto | 18 | 18 | 100 | 1016 | 11 | E 13 | |
| Oggi h: 01:00 | Coperto | 18 | 17 | 93 | 1016 | 13 | E 11.1 | |
| Oggi h: 00:20 | Molto Nuvoloso | 17 | 17 | 100 | 1016 | 13 | E 9.3 | |
| Oggi h: 00:00 | Nuvoloso | 17 | 17 | 100 | 1016 | 10 | E 11.1 | |
| Ieri h: 23:00 | Nuvoloso | 17 | 17 | 100 | 1016 | 10 | E 9.3 | |
| Ieri h: 22:00 | Nuvoloso | 17 | 17 | 100 | 1016 | 19 | E 9.3 | |
| Ieri h: 21:00 | Poco Nuvoloso | 18 | 17 | 93 | 1016 | 19 | E 9.3 | |
| Ieri h: 20:00 | Poco Nuvoloso | 19 | 17 | 88 | 1015 | 19 | E 11.1 | |
| Ieri h: 19:00 | Molto Nuvoloso | 19 | 17 | 88 | 1016 | 24 | E 11.1 | |
| Ieri h: 18:00 | Coperto | 20 | 17 | 82 | 1016 | 24 | SE 9.3 | |



